VIV2198 MMMX-MMGL

Flight info

Callsign VIV2198
Flight time 0h 49m
Altitude 34000
Route OVAGO3A OVAGO UT123 IGSON IGSON1B
Aircraft A320/M-SDE3FGHIRWY/LB1

Departure

Time 2026-05-08 19:22
Airport Mexico City Benito Juárez International Airport (MMMX)

Arrival

Time 2026-05-08 20:11
Airport Guadalajara International Airport (MMGL)
Time Latitude Longitude Altitude Speed Heading
2026-05-08 19:08 19.43407 -99.08301 7330 ft 1 kts 330°
2026-05-08 19:08 19.43396 -99.08295 7303 ft 3 kts 328°
2026-05-08 19:09 19.43379 -99.08283 7303 ft 3 kts 322°
2026-05-08 19:09 19.43364 -99.08269 7303 ft 3 kts 313°
2026-05-08 19:09 19.43351 -99.08253 7303 ft 3 kts 292°
2026-05-08 19:09 19.43348 -99.08236 7303 ft 2 kts 245°
2026-05-08 19:10 19.43351 -99.08229 7303 ft 1 kts 239°
2026-05-08 19:15 19.43348 -99.08234 7303 ft 2 kts 239°
2026-05-08 19:15 19.43339 -99.08250 7303 ft 3 kts 239°
2026-05-08 19:16 19.43325 -99.08276 7303 ft 5 kts 239°
2026-05-08 19:16 19.43305 -99.08310 7303 ft 6 kts 238°
2026-05-08 19:16 19.43281 -99.08352 7303 ft 7 kts 238°
2026-05-08 19:16 19.43253 -99.08400 7303 ft 8 kts 239°
2026-05-08 19:17 19.43224 -99.08455 7303 ft 9 kts 240°
2026-05-08 19:17 19.43191 -99.08516 7303 ft 10 kts 240°
2026-05-08 19:17 19.43154 -99.08582 7303 ft 11 kts 239°
2026-05-08 19:17 19.43114 -99.08653 7303 ft 12 kts 239°
2026-05-08 19:18 19.43071 -99.08729 7303 ft 13 kts 239°
2026-05-08 19:18 19.43025 -99.08811 7303 ft 13 kts 239°
2026-05-08 19:18 19.42975 -99.08898 7303 ft 14 kts 239°
2026-05-08 19:18 19.42938 -99.08964 7303 ft 11 kts 239°
2026-05-08 19:19 19.42893 -99.09015 7303 ft 3 kts 189°
2026-05-08 19:19 19.42888 -99.09015 7303 ft 0 kts 183°
2026-05-08 19:19 19.42885 -99.09015 7303 ft 1 kts 176°
2026-05-08 19:19 19.42872 -99.09013 7303 ft 3 kts 172°
2026-05-08 19:20 19.42851 -99.09005 7303 ft 4 kts 156°
2026-05-08 19:20 19.42842 -99.09001 7303 ft 5 kts 156°
2026-05-08 19:20 19.42806 -99.08961 7303 ft 5 kts 71°
2026-05-08 19:20 19.42826 -99.08932 7303 ft 0 kts 60°
2026-05-08 19:21 19.42834 -99.08917 7303 ft 10 kts 60°
2026-05-08 19:21 19.42993 -99.08637 7301 ft 79 kts 59°
2026-05-08 19:21 19.43372 -99.07960 7305 ft 132 kts 60°
2026-05-08 19:21 19.43928 -99.06980 7320 ft 174 kts 57°
2026-05-08 19:22 19.44574 -99.05873 8047 ft 177 kts 58°
2026-05-08 19:22 19.45207 -99.04736 8851 ft 181 kts 59°
2026-05-08 19:22 19.45873 -99.03539 9012 ft 197 kts 59°
2026-05-08 19:22 19.46593 -99.02246 9098 ft 215 kts 60°
2026-05-08 19:23 19.47392 -99.00819 9166 ft 234 kts 59°
2026-05-08 19:23 19.48267 -98.99257 9229 ft 258 kts 59°
2026-05-08 19:23 19.49214 -98.97562 9433 ft 273 kts 62°
2026-05-08 19:23 19.49758 -98.95664 10113 ft 276 kts 91°
2026-05-08 19:24 19.49238 -98.93728 10759 ft 278 kts 125°
2026-05-08 19:24 19.47817 -98.92390 11211 ft 271 kts 156°
2026-05-08 19:24 19.45941 -98.92146 11658 ft 278 kts 192°
2026-05-08 19:24 19.44233 -98.93096 12353 ft 283 kts 226°
2026-05-08 19:25 19.43169 -98.94846 13097 ft 286 kts 244°
2026-05-08 19:25 19.42313 -98.96769 13876 ft 289 kts 244°
2026-05-08 19:25 19.41453 -98.98707 14587 ft 292 kts 244°
2026-05-08 19:25 19.40719 -99.00772 14966 ft 309 kts 255°
2026-05-08 19:26 19.40210 -99.02997 15442 ft 319 kts 255°
2026-05-08 19:26 19.39703 -99.05301 16109 ft 323 kts 256°
2026-05-08 19:26 19.39199 -99.07630 16831 ft 326 kts 256°
2026-05-08 19:26 19.38689 -99.09985 17584 ft 330 kts 255°
2026-05-08 19:27 19.38185 -99.12300 18310 ft 333 kts 255°
2026-05-08 19:27 19.37660 -99.14704 18967 ft 337 kts 255°
2026-05-08 19:27 19.37128 -99.17129 19558 ft 339 kts 255°
2026-05-08 19:27 19.36593 -99.19574 20147 ft 342 kts 255°
2026-05-08 19:28 19.36052 -99.22039 20746 ft 344 kts 255°
2026-05-08 19:28 19.35690 -99.23682 21135 ft 346 kts 255°
2026-05-08 19:28 19.35137 -99.26175 21697 ft 348 kts 255°
2026-05-08 19:28 19.34580 -99.28687 22253 ft 351 kts 255°
2026-05-08 19:29 19.34019 -99.31222 22893 ft 354 kts 255°
2026-05-08 19:29 19.33458 -99.33762 23553 ft 356 kts 255°
2026-05-08 19:29 19.32891 -99.36329 24024 ft 359 kts 255°
2026-05-08 19:29 19.32320 -99.38907 24184 ft 361 kts 255°
2026-05-08 19:30 19.31782 -99.41522 24336 ft 377 kts 256°
2026-05-08 19:30 19.31251 -99.44303 24498 ft 393 kts 257°
2026-05-08 19:30 19.30724 -99.47178 24854 ft 401 kts 257°
2026-05-08 19:30 19.30198 -99.50095 25314 ft 405 kts 257°
2026-05-08 19:31 19.29666 -99.53046 25815 ft 408 kts 257°
2026-05-08 19:31 19.29125 -99.56010 26337 ft 411 kts 257°
2026-05-08 19:31 19.28577 -99.58963 26847 ft 414 kts 257°
2026-05-08 19:31 19.28016 -99.61963 27361 ft 416 kts 257°
2026-05-08 19:32 19.27449 -99.64981 27819 ft 418 kts 257°
2026-05-08 19:32 19.26879 -99.68013 28255 ft 421 kts 257°
2026-05-08 19:32 19.26305 -99.71066 28675 ft 424 kts 258°
2026-05-08 19:32 19.25728 -99.74132 29052 ft 426 kts 258°
2026-05-08 19:33 19.25145 -99.77224 29127 ft 427 kts 258°
2026-05-08 19:33 19.23982 -99.83383 29083 ft 428 kts 258°
2026-05-08 19:33 19.23395 -99.86479 29487 ft 430 kts 258°
2026-05-08 19:34 19.22804 -99.89591 29897 ft 433 kts 258°
2026-05-08 19:34 19.22209 -99.92721 30265 ft 435 kts 258°
2026-05-08 19:34 19.21611 -99.95872 30680 ft 438 kts 258°
2026-05-08 19:34 19.21015 -99.99010 31060 ft 440 kts 258°
2026-05-08 19:35 19.20411 -100.02202 31459 ft 441 kts 258°
2026-05-08 19:35 19.19810 -100.05378 32011 ft 439 kts 258°
2026-05-08 19:35 19.19216 -100.08503 32587 ft 436 kts 258°
2026-05-08 19:35 19.18774 -100.11669 33152 ft 435 kts 266°
2026-05-08 19:36 19.18849 -100.14865 33643 ft 436 kts 275°
2026-05-08 19:36 19.19454 -100.18000 33782 ft 436 kts 285°
2026-05-08 19:36 19.20420 -100.21001 33808 ft 426 kts 287°
2026-05-08 19:37 19.22330 -100.26895 33798 ft 421 kts 286°
2026-05-08 19:37 19.24193 -100.32765 33786 ft 420 kts 286°
2026-05-08 19:38 19.26042 -100.38601 33773 ft 420 kts 286°
2026-05-08 19:38 19.27898 -100.44471 33765 ft 419 kts 286°
2026-05-08 19:39 19.29744 -100.50303 33756 ft 420 kts 286°
2026-05-08 19:39 19.31598 -100.56171 33755 ft 420 kts 286°
2026-05-08 19:40 19.33457 -100.62029 33749 ft 420 kts 286°
2026-05-08 19:40 19.35312 -100.67886 33755 ft 419 kts 286°
2026-05-08 19:41 19.37151 -100.73702 33754 ft 419 kts 286°
2026-05-08 19:41 19.39125 -100.79525 33755 ft 420 kts 288°
2026-05-08 19:42 19.41165 -100.85324 33761 ft 420 kts 288°
2026-05-08 19:42 19.43188 -100.91129 33768 ft 419 kts 287°
2026-05-08 19:43 19.45173 -100.96896 33774 ft 419 kts 287°
2026-05-08 19:43 19.47159 -101.02704 33790 ft 419 kts 287°
2026-05-08 19:44 19.49150 -101.08508 33787 ft 419 kts 287°
2026-05-08 19:44 19.51135 -101.14322 33801 ft 418 kts 287°
2026-05-08 19:45 19.53120 -101.20124 33802 ft 418 kts 287°
2026-05-08 19:45 19.55093 -101.25881 33804 ft 418 kts 287°
2026-05-08 19:46 19.57070 -101.31684 33811 ft 418 kts 287°
2026-05-08 19:46 19.60028 -101.40378 33822 ft 417 kts 287°
2026-05-08 19:47 19.61989 -101.46142 33830 ft 417 kts 287°
2026-05-08 19:47 19.63952 -101.51937 33821 ft 417 kts 287°
2026-05-08 19:48 19.64931 -101.54827 33619 ft 412 kts 287°
2026-05-08 19:48 19.65897 -101.57668 33366 ft 408 kts 287°
2026-05-08 19:48 19.66841 -101.60448 32886 ft 405 kts 287°
2026-05-08 19:48 19.67809 -101.63307 31832 ft 417 kts 287°
2026-05-08 19:49 19.68791 -101.66206 31291 ft 416 kts 287°
2026-05-08 19:49 19.69771 -101.69088 30841 ft 412 kts 287°
2026-05-08 19:49 19.70744 -101.71950 30372 ft 410 kts 287°
2026-05-08 19:49 19.71703 -101.74780 29907 ft 407 kts 287°
2026-05-08 19:50 19.72661 -101.77616 29397 ft 405 kts 287°
2026-05-08 19:50 19.73594 -101.80384 28883 ft 402 kts 287°
2026-05-08 19:50 19.74530 -101.83161 28515 ft 396 kts 287°
2026-05-08 19:50 19.75451 -101.85898 28089 ft 392 kts 287°
2026-05-08 19:51 19.76367 -101.88626 27629 ft 390 kts 287°
2026-05-08 19:51 19.77275 -101.91322 27190 ft 388 kts 287°
2026-05-08 19:51 19.78182 -101.94013 26764 ft 386 kts 287°
2026-05-08 19:51 19.79086 -101.96692 26342 ft 384 kts 287°
2026-05-08 19:52 19.79974 -101.99326 25925 ft 382 kts 287°
2026-05-08 19:52 19.80867 -102.01978 25512 ft 380 kts 287°
2026-05-08 19:52 19.81752 -102.04608 25261 ft 374 kts 287°
2026-05-08 19:52 19.82617 -102.07182 25004 ft 367 kts 287°
2026-05-08 19:53 19.83467 -102.09726 24653 ft 364 kts 286°
2026-05-08 19:53 19.84312 -102.12254 24270 ft 362 kts 286°
2026-05-08 19:53 19.85160 -102.14767 23880 ft 360 kts 288°
2026-05-08 19:53 19.86342 -102.17081 23494 ft 363 kts 300°
2026-05-08 19:54 19.87743 -102.19306 23049 ft 362 kts 301°
2026-05-08 19:54 19.89155 -102.21524 22616 ft 361 kts 301°
2026-05-08 19:54 19.90557 -102.23723 22199 ft 359 kts 301°
2026-05-08 19:54 19.91956 -102.25917 21762 ft 357 kts 301°
2026-05-08 19:55 19.93348 -102.28099 21332 ft 356 kts 301°
2026-05-08 19:55 19.94736 -102.30273 20944 ft 354 kts 301°
2026-05-08 19:55 19.96117 -102.32441 20544 ft 352 kts 301°
2026-05-08 19:55 19.97484 -102.34598 20142 ft 351 kts 301°
2026-05-08 19:56 19.98847 -102.36752 19757 ft 350 kts 301°
2026-05-08 19:56 20.00187 -102.38867 19428 ft 347 kts 301°
2026-05-08 19:56 20.01524 -102.40976 19310 ft 338 kts 301°
2026-05-08 19:56 20.02821 -102.43022 19190 ft 329 kts 301°
2026-05-08 19:57 20.04088 -102.45022 19012 ft 323 kts 301°
2026-05-08 19:57 20.05336 -102.46998 18749 ft 321 kts 301°
2026-05-08 19:57 20.06581 -102.48970 18481 ft 320 kts 301°
2026-05-08 19:57 20.07820 -102.50929 18117 ft 318 kts 301°
2026-05-08 19:58 20.09052 -102.52879 17669 ft 317 kts 301°
2026-05-08 19:58 20.10280 -102.54821 17218 ft 315 kts 301°
2026-05-08 19:58 20.11482 -102.56722 16625 ft 314 kts 301°
2026-05-08 19:58 20.12696 -102.58641 16328 ft 311 kts 301°
2026-05-08 19:59 20.13898 -102.60539 15936 ft 308 kts 301°
2026-05-08 19:59 20.15091 -102.62423 15533 ft 306 kts 301°
2026-05-08 19:59 20.16275 -102.64296 15134 ft 303 kts 301°
2026-05-08 19:59 20.17453 -102.66162 14740 ft 301 kts 301°
2026-05-08 20:00 20.18619 -102.68011 14358 ft 300 kts 301°
2026-05-08 20:00 20.19778 -102.69850 13978 ft 298 kts 301°
2026-05-08 20:00 20.20916 -102.71655 13595 ft 296 kts 301°
2026-05-08 20:00 20.22066 -102.73482 13192 ft 298 kts 301°
2026-05-08 20:01 20.23228 -102.75330 12765 ft 302 kts 301°
2026-05-08 20:01 20.24398 -102.77194 12383 ft 303 kts 301°
2026-05-08 20:01 20.25564 -102.79046 12194 ft 297 kts 301°
2026-05-08 20:01 20.26704 -102.80852 12024 ft 290 kts 301°
2026-05-08 20:02 20.27813 -102.82608 11783 ft 287 kts 301°
2026-05-08 20:02 20.28922 -102.84368 11506 ft 285 kts 301°
2026-05-08 20:02 20.30021 -102.86114 11154 ft 282 kts 301°
2026-05-08 20:02 20.31116 -102.87858 10838 ft 282 kts 301°
2026-05-08 20:03 20.32206 -102.89593 10643 ft 280 kts 301°
2026-05-08 20:03 20.33278 -102.91300 10435 ft 279 kts 301°
2026-05-08 20:03 20.34350 -102.93008 10198 ft 274 kts 301°
2026-05-08 20:03 20.35388 -102.94655 10072 ft 260 kts 301°
2026-05-08 20:04 20.36371 -102.96211 9914 ft 247 kts 301°
2026-05-08 20:04 20.37315 -102.97710 9742 ft 238 kts 301°
2026-05-08 20:04 20.38226 -102.99160 9586 ft 232 kts 301°
2026-05-08 20:04 20.39110 -103.00571 9119 ft 233 kts 302°
2026-05-08 20:05 20.39954 -103.02026 8764 ft 225 kts 292°
2026-05-08 20:05 20.40561 -103.03505 8648 ft 211 kts 290°
2026-05-08 20:05 20.41147 -103.04900 8564 ft 199 kts 290°
2026-05-08 20:05 20.41692 -103.06189 8492 ft 186 kts 291°
2026-05-08 20:06 20.42200 -103.07399 8439 ft 172 kts 291°
2026-05-08 20:06 20.42681 -103.08544 8310 ft 166 kts 291°
2026-05-08 20:06 20.43166 -103.09699 8187 ft 177 kts 292°
2026-05-08 20:06 20.43682 -103.10922 8154 ft 185 kts 292°
2026-05-08 20:07 20.44211 -103.12175 7981 ft 185 kts 291°
2026-05-08 20:07 20.44738 -103.13426 7801 ft 184 kts 291°
2026-05-08 20:07 20.45257 -103.14658 7594 ft 183 kts 291°
2026-05-08 20:07 20.45778 -103.15892 7409 ft 181 kts 291°
2026-05-08 20:08 20.46286 -103.17098 7233 ft 177 kts 291°
2026-05-08 20:08 20.46788 -103.18289 7045 ft 175 kts 291°
2026-05-08 20:08 20.47276 -103.19446 6870 ft 166 kts 291°
2026-05-08 20:08 20.47746 -103.20563 6707 ft 165 kts 291°
2026-05-08 20:09 20.48211 -103.21666 6520 ft 163 kts 291°
2026-05-08 20:09 20.48660 -103.22733 6384 ft 153 kts 291°
2026-05-08 20:09 20.49064 -103.23690 6264 ft 149 kts 292°
2026-05-08 20:09 20.49486 -103.24696 6128 ft 149 kts 292°
2026-05-08 20:10 20.49911 -103.25706 5932 ft 150 kts 293°
2026-05-08 20:10 20.50339 -103.26724 5712 ft 151 kts 293°
2026-05-08 20:10 20.50769 -103.27747 5448 ft 151 kts 294°
2026-05-08 20:10 20.51202 -103.28771 5204 ft 152 kts 294°
2026-05-08 20:11 20.51634 -103.29794 5026 ft 145 kts 294°
2026-05-08 20:11 20.51978 -103.30626 5021 ft 98 kts 294°
2026-05-08 20:11 20.52186 -103.31118 5027 ft 49 kts 294°
2026-05-08 20:11 20.52290 -103.31372 5023 ft 30 kts 294°
2026-05-08 20:12 20.52416 -103.31519 5023 ft 23 kts 320°
2026-05-08 20:12 20.52503 -103.31585 5021 ft 10 kts 332°
2026-05-08 20:12 20.52574 -103.31584 5020 ft 0 kts 21°
2026-05-08 20:13 20.52575 -103.31583 5020 ft 1 kts 21°
2026-05-08 20:13 20.52589 -103.31577 5020 ft 3 kts 21°
2026-05-08 20:13 20.52604 -103.31553 5020 ft 5 kts 81°
2026-05-08 20:14 20.52591 -103.31508 5020 ft 7 kts 110°
2026-05-08 20:14 20.52569 -103.31443 5020 ft 12 kts 110°
2026-05-08 20:14 20.52539 -103.31351 5020 ft 14 kts 108°
2026-05-08 20:14 20.52507 -103.31245 5020 ft 16 kts 111°
2026-05-08 20:15 20.52466 -103.31128 5017 ft 18 kts 109°
2026-05-08 20:15 20.52431 -103.31021 5021 ft 11 kts 108°
2026-05-08 20:15 20.52426 -103.30943 5021 ft 11 kts 69°
2026-05-08 20:15 20.52457 -103.30856 5019 ft 15 kts 70°
2026-05-08 20:16 20.52482 -103.30784 5020 ft 12 kts 70°
2026-05-08 20:16 20.52524 -103.30661 5020 ft 15 kts 70°
2026-05-08 20:16 20.52532 -103.30582 5018 ft 9 kts 133°
2026-05-08 20:16 20.52493 -103.30558 5018 ft 10 kts 158°
2026-05-08 20:17 20.52435 -103.30510 5018 ft 12 kts 114°
2026-05-08 20:17 20.52419 -103.30444 5019 ft 8 kts 90°
2026-05-08 20:17 20.52453 -103.30393 5019 ft 9 kts 66°
2026-05-08 20:17 20.52438 -103.30324 5015 ft 11 kts 109°
2026-05-08 20:18 20.52412 -103.30243 5017 ft 12 kts 107°
2026-05-08 20:18 20.52394 -103.30162 5014 ft 12 kts 108°
2026-05-08 20:18 20.52376 -103.30110 5017 ft 7 kts 110°
2026-05-08 20:18 20.52361 -103.30064 5018 ft 3 kts 110°
2026-05-08 20:19 20.52369 -103.30045 5016 ft 2 kts 28°
2026-05-08 20:19 20.52394 -103.30039 5017 ft 4 kts 18°
2026-05-08 20:19 20.52413 -103.30032 5019 ft 0 kts 20°